Theta_e
315 315 316 313 314 315 315 314 313 313 313 313 312 312 311 310 309 309 308 308 308 308 306 305 306 305 304 305 304 305 304 303 303 304 304 303 304 304 303 303 303 301 303 301 302 300 300 299 299 300 299 298 298 299 300 299 299 300 300 299 298 298 298 296 294 295 296 297 298 299 299 298 297 297 297 297 298 300 302 300 301 301 301 301 302
314 315 313 313 313 314 315 315 313 312 312 313 312 312 311 311 310 308 308 309 309 310 307 306 306 305 304 304 304 304 305 304 303 303 304 304 303 304 304 303 302 302 302 301 301 303 301 299 299 299 301 298 297 298 299 299 298 298 298 298 297 298 298 296 294 294 293 294 296 296 296 297 295 296 296 296 296 298 298 299 299 300 301 301 301
313 313 313 314 314 315 315 314 312 311 311 311 311 311 311 311 311 310 309 309 309 310 308 307 307 306 305 305 304 304 305 304 303 304 303 303 303 302 304 303 302 302 301 301 302 301 300 301 300 299 300 297 298 298 299 299 298 298 297 298 297 296 297 296 294 292 292 292 293 293 294 294 293 294 295 296 297 297 297 297 298 299 300 300 300
313 313 312 311 313 313 312 313 313 311 310 311 311 310 310 311 312 311 310 309 309 308 307 307 307 306 305 305 304 305 305 305 304 303 305 303 304 303 302 302 302 302 302 301 301 302 301 299 299 299 300 297 297 298 298 298 298 297 296 296 296 296 296 295 294 293 293 290 290 293 293 291 292 293 295 296 295 296 297 297 297 297 298 299 299
312 312 312 312 312 312 312 313 313 312 311 309 309 309 310 311 311 309 308 308 309 309 309 309 308 307 308 307 306 306 306 306 306 304 304 304 304 304 303 302 302 303 303 302 304 302 302 300 299 300 299 297 297 297 297 297 297 295 294 294 294 296 295 294 293 291 290 288 289 291 291 291 292 292 294 293 294 294 295 295 296 296 297 297 298
311 311 312 312 311 311 311 312 312 311 311 309 309 310 312 312 312 311 311 310 310 310 310 310 310 308 308 308 307 307 306 306 306 305 305 306 306 305 305 303 302 302 302 302 303 302 302 301 299 300 300 299 298 298 297 296 294 293 293 293 294 293 292 292 291 290 289 288 289 289 289 290 290 291 293 293 292 293 294 294 294 295 296 296 297
309 310 310 310 311 311 311 311 312 312 312 312 312 313 312 312 312 312 312 312 312 312 312 311 311 311 310 310 310 310 309 308 306 305 307 306 306 305 303 303 304 303 303 303 303 302 301 301 300 301 300 299 299 299 297 295 295 293 294 293 292 291 291 290 289 289 289 289 288 288 289 290 290 290 292 292 292 292 292 292 292 294 295 294 295
309 309 309 310 310 310 311 312 313 313 313 313 313 313 312 312 311 311 312 312 313 313 313 313 312 312 312 311 312 311 311 310 308 307 307 307 305 304 304 303 303 303 302 302 302 303 303 302 301 301 301 300 300 299 298 296 294 293 292 292 291 290 290 290 289 288 289 288 287 287 287 287 288 290 292 291 291 291 293 292 290 291 293 294 293
310 310 310 310 310 311 311 312 313 313 314 314 314 314 313 313 313 313 313 312 313 313 312 313 313 313 313 314 313 312 310 310 311 310 308 307 307 307 306 306 306 305 304 303 303 302 302 302 301 301 304 306 303 302 300 298 294 291 292 291 290 290 289 289 289 288 287 288 288 288 287 287 287 288 289 288 288 288 291 291 290 291 292 292 293
310 309 309 309 309 310 312 313 313 313 312 313 313 313 313 313 313 313 313 313 313 312 312 312 312 312 313 313 312 310 310 310 309 306 306 307 306 308 307 306 306 306 305 304 303 303 302 302 304 306 305 305 302 298 296 297 298 295 291 291 291 289 288 287 288 288 289 288 287 287 287 287 286 287 287 288 289 290 289 289 289 290 290 291 291
307 308 308 309 310 310 311 312 313 312 312 313 312 312 312 312 312 312 312 312 312 312 312 312 312 312 312 311 309 309 309 309 303 300 301 300 304 305 306 306 305 306 305 304 304 303 302 301 300 304 305 304 301 296 295 294 294 294 294 295 294 291 288 288 287 287 290 288 287 287 286 286 287 287 287 288 288 289 288 289 289 289 288 288 287
304 305 306 306 307 309 309 310 310 309 308 308 310 311 312 311 311 311 311 311 312 311 311 311 310 310 310 308 307 308 307 300 296 299 298 297 300 305 305 306 306 305 305 305 304 303 302 300 300 302 302 300 297 295 294 293 293 292 292 292 293 293 293 291 290 288 287 287 286 287 285 286 286 286 287 287 288 288 288 287 287 288 288 287 286
299 301 302 303 304 305 306 308 307 306 306 307 308 310 310 310 308 307 307 308 307 308 309 308 309 308 307 308 308 305 304 296 293 295 296 296 297 299 304 305 306 306 305 304 303 302 301 299 298 298 299 303 300 294 294 294 293 292 293 293 293 292 291 292 293 292 288 287 287 286 286 286 286 287 290 289 288 288 288 287 287 286 287 286 287
295 297 299 301 301 301 302 302 303 304 304 304 305 308 308 308 306 304 304 304 306 306 306 306 307 306 306 306 302 296 295 295 293 294 295 295 295 295 299 300 301 302 302 302 301 299 298 299 298 297 297 299 296 294 295 294 294 292 292 292 292 293 292 291 290 290 291 289 287 287 287 289 289 288 290 290 288 288 287 287 287 287 287 287 288
293 295 296 296 297 298 299 298 299 299 298 298 299 300 303 300 301 302 303 304 304 304 304 303 302 302 301 299 296 293 294 293 293 294 295 295 295 296 297 297 296 295 296 298 297 297 297 299 297 297 297 297 298 295 295 294 294 293 291 292 292 291 292 291 289 288 290 288 288 288 287 288 288 288 288 288 288 289 289 288 288 288 288 288 287
293 293 294 295 296 296 297 295 295 295 295 295 295 296 295 296 297 296 295 295 295 295 295 296 299 297 296 295 293 291 291 293 292 293 293 293 295 296 294 294 294 294 294 294 295 296 297 298 298 298 297 297 297 294 295 296 295 294 293 291 291 291 291 292 292 293 292 289 288 288 288 288 292 289 289 289 288 287 289 288 286 286 285 284 284
294 294 296 294 296 296 296 296 296 294 294 294 294 294 294 293 293 293 293 292 294 295 297 295 295 295 293 291 292 290 292 293 293 293 293 293 294 295 294 295 294 294 294 294 295 295 296 296 295 295 293 292 292 292 292 294 295 294 292 289 289 290 289 291 291 290 291 291 290 291 290 290 290 290 290 290 289 289 286 284 284 283 283 283 284
294 295 295 295 297 297 296 297 296 295 294 295 294 293 292 292 292 293 294 293 294 294 292 294 292 293 292 290 291 292 290 292 293 292 293 293 295 294 293 293 292 292 292 291 291 292 296 302 297 291 291 292 290 290 291 293 292 291 290 290 289 288 287 286 288 288 290 290 290 289 289 289 290 290 290 291 290 291 285 283 285 283 283 284 283
294 294 295 294 293 295 295 295 296 296 296 295 294 293 293 294 292 291 293 293 292 292 294 294 292 290 289 290 297 290 288 291 292 292 292 293 294 292 293 292 291 288 290 289 289 289 290 294 295 293 292 290 289 289 290 292 291 291 290 288 287 287 287 287 287 284 284 285 284 285 286 288 288 287 289 290 290 291 287 286 285 284 283 283 284
295 295 296 295 295 295 295 296 295 295 295 295 295 296 296 295 292 293 290 293 293 291 293 293 291 289 288 287 288 287 288 288 290 292 292 292 293 293 292 292 290 288 289 290 289 288 289 290 292 289 289 289 289 289 289 290 290 289 289 288 287 288 287 285 287 285 284 284 283 283 285 285 285 284 285 285 288 290 288 287 286 286 284 284 284
299 300 296 294 294 294 294 295 295 294 293 294 294 295 294 294 293 293 293 291 292 291 291 290 290 287 286 286 286 287 289 287 289 291 292 292 292 292 288 289 289 289 289 289 288 288 288 288 289 290 288 289 289 289 289 289 290 289 288 287 288 288 286 283 286 290 284 285 285 284 285 284 284 284 284 284 286 287 288 287 287 286 286 285 284
298 297 297 294 295 296 295 295 296 297 295 295 296 297 295 295 294 292 291 291 291 290 288 289 288 287 286 285 286 286 291 292 288 291 291 291 291 291 290 289 289 290 288 287 286 286 286 286 287 289 288 288 288 288 289 289 290 291 288 288 287 287 286 287 284 284 283 283 282 283 284 282 282 284 285 285 286 288 287 287 287 287 287 286 286
297 297 296 296 296 297 297 297 298 299 298 297 296 296 295 295 294 293 292 291 291 290 288 288 288 286 285 284 284 285 286 289 291 289 290 290 290 290 290 290 290 290 288 287 285 286 286 286 288 290 288 288 288 288 288 288 289 288 288 287 287 287 287 285 285 283 282 282 283 283 283 282 283 283 284 285 286 286 286 287 287 287 288 288 288
293 295 295 295 295 296 297 296 295 295 295 295 294 294 292 294 294 293 292 292 291 289 287 287 287 287 286 284 284 284 284 284 289 290 289 289 289 289 289 289 290 290 289 287 287 287 286 287 289 288 288 288 288 288 287 288 286 287 287 287 287 288 286 285 283 283 283 282 282 281 282 282 282 283 284 286 286 286 287 287 287 287 287 287 288
293 293 294 295 296 296 296 296 295 293 293 293 292 291 290 290 291 289 291 290 290 290 288 289 290 288 286 286 284 283 284 283 284 287 289 289 289 289 289 289 289 289 289 289 288 288 289 289 288 288 288 288 288 288 288 288 287 287 287 287 290 283 283 282 283 283 282 282 282 283 282 283 284 285 285 285 286 286 286 286 286 287 287 287 287
293 293 292 291 293 295 296 296 296 296 294 293 293 292 293 292 291 290 289 289 289 289 287 286 286 286 285 284 283 283 283 283 283 285 289 289 288 288 288 289 289 289 289 287 288 288 288 288 288 288 288 288 287 285 285 285 288 287 288 287 283 282 282 282 281 282 281 282 282 282 283 283 283 284 285 285 284 284 284 285 285 285 285 286 286
294 293 293 292 290 291 293 293 292 292 293 292 292 293 291 291 292 291 291 291 289 286 288 288 287 285 285 285 285 285 284 284 284 284 283 284 285 287 287 287 288 288 287 287 288 287 287 288 287 287 287 287 286 286 286 286 284 284 281 282 282 281 282 282 282 282 282 282 282 282 282 283 283 283 283 283 284 284 284 285 284 284 285 285 285
293 293 294 293 292 292 293 291 293 293 290 288 289 288 290 292 292 292 291 290 290 288 287 287 288 288 288 286 286 284 285 284 284 284 283 284 285 284 285 285 283 283 284 283 285 287 285 286 285 283 283 283 282 282 282 282 282 283 282 281 281 281 284 287 287 282 282 282 282 281 281 282 282 283 284 284 284 285 285 284 284 285 285 285 284
292 292 293 292 293 292 292 292 293 292 288 285 282 283 285 288 290 291 290 290 294 292 291 290 291 291 290 287 286 284 282 284 285 287 286 287 286 284 283 283 283 283 286 286 285 283 283 283 282 282 280 279 278 279 279 280 280 280 281 282 281 281 282 281 282 282 282 281 281 281 282 282 283 284 285 285 285 286 286 285 286 285 286 286 284
290 291 292 292 292 292 292 291 291 290 289 287 287 286 285 287 285 287 287 291 293 293 292 292 292 290 288 286 287 287 286 286 287 287 287 287 287 287 286 286 286 286 286 286 285 281 279 279 277 277 276 277 278 277 277 277 278 279 279 282 279 280 281 281 281 281 281 282 282 282 283 283 283 284 284 284 285 286 286 286 285 286 285 284 284
289 289 290 290 291 292 292 291 289 289 289 288 289 287 285 286 287 287 288 289 290 291 292 291 291 290 291 287 285 288 288 287 287 288 288 287 287 287 287 287 287 287 286 285 281 280 280 279 276 275 276 277 277 276 277 277 278 277 278 278 279 281 281 281 281 281 281 282 283 284 284 284 284 284 284 284 284 285 285 286 286 285 285 284 284
289 289 289 289 290 290 290 290 289 289 287 287 287 288 287 285 285 287 287 287 289 290 290 289 289 289 289 288 286 284 287 288 287 287 287 287 287 287 287 286 286 286 286 286 282 280 277 277 276 275 276 278 277 277 278 278 277 277 277 278 279 279 280 281 281 280 281 282 283 283 284 284 284 284 284 284 284 284 285 285 285 285 285 285 285
289 289 289 289 289 289 289 290 289 288 287 286 285 286 287 288 287 284 286 287 287 287 288 288 289 289 288 288 288 287 287 287 287 287 287 287 287 287 287 286 286 286 286 283 280 277 275 276 277 276 276 276 277 277 278 279 279 278 278 278 280 281 281 281 280 280 280 282 283 284 284 284 284 284 284 284 284 284 284 284 285 285 284 284 284
289 289 288 289 289 288 289 290 289 287 288 288 288 287 288 288 288 286 285 286 286 287 287 287 288 288 288 288 287 287 287 287 287 287 287 287 287 286 286 285 286 286 285 279 278 276 276 278 277 279 279 278 279 278 277 278 278 279 279 280 280 281 281 281 281 281 282 283 283 284 284 284 284 284 284 284 284 284 284 284 284 284 284 284 284
288 287 287 287 288 289 289 288 289 289 288 288 288 288 288 286 287 287 288 288 286 284 280 283 285 287 286 286 287 287 287 287 287 287 287 287 286 286 286 286 284 283 281 281 280 280 279 278 278 279 278 278 278 278 277 279 279 280 280 281 281 281 281 282 282 282 282 283 283 284 284 284 284 284 284 284 284 283 284 284 284 284 284 284 284
288 288 288 288 288 288 287 287 289 289 289 290 290 290 288 286 285 285 285 285 284 282 280 280 281 286 287 287 287 287 287 287 287 287 286 287 286 286 284 282 281 279 279 278 280 279 279 279 279 280 280 280 279 278 279 279 280 280 280 281 281 282 282 283 283 283 283 284 284 284 284 284 285 284 284 284 284 284 284 284 284 284 284 284 284
288 287 287 288 288 288 288 287 287 289 288 288 288 287 286 286 285 284 284 283 283 282 282 282 283 283 285 284 286 287 287 287 286 286 286 286 285 285 284 283 281 280 280 279 279 279 279 279 278 279 280 280 279 279 278 279 280 281 282 282 282 282 282 283 284 284 284 284 284 284 284 284 285 285 284 283 284 284 284 284 284 284 284 284 284
290 289 289 288 287 288 288 287 288 287 287 286 286 286 285 284 284 284 283 283 283 282 282 282 283 283 282 282 287 285 285 286 286 286 285 285 284 283 281 280 281 281 279 279 279 279 278 277 278 279 280 279 280 281 279 279 280 281 281 281 282 282 284 284 284 284 284 284 284 284 284 284 285 285 284 284 284 284 284 284 284 284 284 284 284
292 289 288 288 287 289 288 287 287 287 286 285 285 284 284 284 283 283 283 283 283 282 282 282 282 282 283 284 284 286 286 285 284 284 284 283 282 282 281 280 280 280 280 280 279 278 277 278 278 278 279 279 278 279 278 280 280 280 280 280 281 282 283 283 284 284 284 284 284 284 284 284 285 285 285 284 284 284 284 284 284 284 284 284 284
292 292 289 287 288 288 288 287 286 286 285 285 284 284 284 284 284 283 283 282 282 282 283 283 283 283 284 285 285 285 286 285 285 284 283 282 281 280 281 280 280 280 279 278 278 278 277 277 277 277 277 278 278 279 279 279 278 279 279 279 280 282 283 283 283 284 283 284 284 284 284 284 285 285 285 284 284 285 284 284 284 284 284 284 284
292 292 289 288 289 289 288 287 286 286 285 285 285 283 283 284 283 283 283 283 283 283 283 284 285 285 285 286 286 286 287 286 285 284 284 282 280 280 279 278 278 277 277 277 277 277 276 275 274 273 273 274 276 277 277 278 279 279 279 280 280 281 282 283 283 283 283 283 283 284 284 284 284 284 284 284 285 285 285 285 285 285 285 285 285
291 291 290 289 288 289 288 286 286 286 285 285 284 284 284 283 283 283 284 284 285 285 285 285 286 286 286 286 286 286 286 285 284 283 282 282 281 280 279 278 279 279 276 276 276 275 275 275 273 272 274 275 276 277 278 278 278 279 279 279 280 280 281 282 282 283 283 283 283 283 284 284 284 285 285 285 285 285 285 285 285 285 285 285 285
290 291 290 289 290 288 287 287 286 285 285 285 285 284 284 284 284 284 284 283 284 285 286 285 285 285 285 285 285 285 285 284 283 283 282 281 281 279 279 276 275 277 277 276 275 274 273 273 273 273 274 276 276 277 277 278 278 278 278 279 279 280 280 281 282 282 283 283 283 283 283 284 284 285 285 285 285 285 285 285 285 285 285 285 285
290 289 289 289 288 287 286 286 286 285 285 285 285 284 284 285 285 285 285 285 285 286 286 285 285 285 285 284 285 285 284 283 282 281 282 281 280 278 276 274 276 275 275 273 272 272 273 273 273 274 275 276 277 277 276 277 277 276 277 278 278 279 279 280 281 281 281 281 282 282 283 284 285 285 285 285 285 285 285 285 285 285 285 285 285
290 289 289 289 288 288 287 287 286 286 286 286 285 285 286 286 285 286 286 286 285 286 285 285 285 285 284 284 284 284 283 282 281 281 281 281 280 277 275 274 273 273 273 274 274 274 274 274 274 275 276 277 278 278 277 277 277 276 276 277 276 277 278 279 280 282 282 281 282 282 283 284 284 285 285 285 285 285 285 285 285 285 285 285 285
289 288 288 288 287 287 287 287 287 287 287 287 287 287 286 287 286 286 285 285 286 285 285 285 285 285 284 284 283 283 282 282 281 281 280 278 278 275 274 273 272 273 273 274 274 275 276 276 275 275 276 276 277 277 278 277 278 277 277 276 277 277 279 280 281 281 281 281 282 283 283 284 285 285 285 285 285 285 285 285 285 285 285 285 285
289 288 288 288 288 287 287 286 287 287 287 287 287 287 286 286 286 285 285 285 285 285 285 285 284 284 284 284 283 282 282 281 281 280 279 279 277 276 274 273 273 272 272 274 274 275 275 276 275 274 275 275 275 276 277 277 277 277 277 278 277 278 278 279 279 279 280 281 282 283 283 284 285 285 285 285 285 285 285 285 285 285 285 285 285
289 288 288 288 288 288 287 287 287 286 287 286 286 286 286 285 285 285 284 284 284 284 284 284 284 283 283 282 281 281 281 281 280 280 279 278 276 275 274 273 273 272 273 274 274 275 275 274 274 274 276 275 275 275 276 277 277 278 278 278 278 278 278 278 278 279 280 281 282 283 284 284 285 285 285 285 285 285 285 285 285 285 285 285 285
287 287 287 287 287 287 287 286 286 286 286 286 285 285 285 285 284 284 284 284 284 284 284 283 282 282 281 281 281 281 281 280 279 279 278 277 277 276 275 275 276 274 274 273 273 274 274 274 275 275 274 273 275 276 277 277 278 278 278 278 278 278 278 278 278 279 280 281 282 283 284 285 285 285 285 285 285 285 285 285 285 285 285 285 285
286 286 286 285 285 285 285 285 285 285 285 285 284 284 284 284 283 283 283 283 282 282 282 282 281 281 281 281 281 280 280 280 279 279 278 277 276 276 276 275 275 274 273 273 273 273 273 273 273 274 276 276 277 278 278 278 278 278 278 278 278 277 277 277 278 279 279 280 281 282 283 284 284 284 284 285 285 285 285 285 285 285 285 285 285
285 285 284 284 284 284 284 284 283 283 283 283 283 283 282 282 282 282 282 281 281 280 280 280 280 280 280 280 280 280 280 279 279 279 279 277 277 277 277 277 277 276 274 274 273 273 273 273 275 277 278 278 278 278 278 278 278 278 278 278 278 277 277 277 278 278 279 279 281 282 283 284 284 284 284 284 285 285 285 285 285 285 285 285 285
Wind_Speed
14 11 11 12 10 9 10 9 9 6 6 7 8 9 8 7 5 5 4 4 4 4 3 3 3 2 3 4 4 5 5 5 4 5 5 6 5 6 5 5 6 5 5 3 2 4 4 4 3 1 1 3 3 3 5 3 4 5 4 6 5 3 3 3 2 3 2 0 1 4 4 5 5 6 7 6 8 7 7 6 8 8 9 8 8
6 8 11 11 4 0 0 4 6 5 6 6 6 7 9 8 6 4 5 5 5 5 5 4 3 2 3 4 4 4 5 6 4 4 5 6 5 5 6 6 5 5 5 5 4 4 4 5 4 3 2 3 3 3 3 4 5 6 5 6 5 5 2 4 3 2 4 2 4 3 4 5 5 6 8 9 8 5 7 7 6 7 7 7 8
11 9 7 5 6 5 1 2 2 4 5 5 4 3 2 5 8 8 6 5 4 5 5 5 4 3 3 3 3 4 4 4 3 3 3 4 4 3 3 5 6 6 6 6 6 4 4 4 4 4 3 3 3 2 3 5 5 6 4 4 5 3 3 3 4 4 4 4 2 5 6 5 5 7 7 6 5 4 6 7 6 6 6 6 6
5 4 3 3 3 4 3 5 8 7 7 6 7 5 4 2 1 4 6 5 5 2 2 2 2 3 4 4 4 4 3 3 4 4 5 5 5 5 4 4 4 4 6 6 5 5 5 4 4 4 4 4 3 3 3 4 5 5 5 4 5 4 3 3 4 3 1 4 3 4 5 5 3 3 5 4 6 6 5 5 4 5 6 6 6
6 6 7 6 5 6 4 6 7 7 6 4 4 4 5 6 4 2 3 3 3 3 2 2 2 2 4 5 5 5 6 5 5 5 3 2 3 4 5 5 4 4 5 6 6 6 5 6 5 4 4 4 3 3 3 4 4 5 5 3 5 4 3 3 3 3 4 5 4 1 3 2 1 3 6 8 7 4 4 6 5 6 7 5 5
6 6 5 6 4 7 5 4 4 6 4 3 3 5 6 7 7 4 3 3 4 5 4 4 2 2 3 3 3 4 4 4 4 4 4 3 3 3 3 3 4 4 4 4 5 6 6 6 5 5 5 6 5 4 4 5 4 5 5 4 4 4 4 3 3 4 4 2 1 4 3 5 3 2 5 7 7 8 8 5 3 5 8 10 8
7 8 7 8 8 7 7 7 8 8 7 5 5 6 7 8 6 4 5 5 5 6 6 6 4 5 6 6 4 4 6 4 4 4 4 4 3 3 3 3 3 4 3 3 4 4 5 6 6 6 7 6 6 6 5 4 4 4 4 4 3 4 4 3 3 5 4 3 2 1 2 2 3 6 5 4 3 4 9 11 11 6 5 7 9
9 9 9 8 8 9 9 8 8 9 9 9 8 7 5 5 6 8 7 4 4 5 4 3 2 1 1 3 5 6 6 6 4 4 4 4 4 4 4 4 4 4 4 4 4 5 6 6 6 7 7 7 7 6 7 7 4 5 3 4 4 4 4 3 5 4 4 3 3 3 2 2 3 1 3 4 5 2 5 5 9 12 10 6 5
10 10 9 9 7 8 10 7 6 6 4 5 9 11 11 9 5 3 7 7 5 4 2 1 2 4 3 4 8 6 5 5 4 3 3 2 2 4 4 4 5 5 5 5 5 6 6 6 6 6 7 9 11 10 9 9 7 6 4 3 4 5 4 4 4 4 3 3 4 2 3 5 4 6 7 6 6 5 6 4 4 6 8 8 6
8 8 8 9 8 8 9 12 13 11 8 6 5 7 8 8 9 9 10 10 8 6 6 4 2 4 8 10 8 5 4 3 4 6 4 2 3 4 3 4 4 5 5 5 5 6 7 6 6 10 11 11 11 11 11 10 9 8 8 5 5 5 4 3 3 2 2 2 2 2 5 5 5 3 2 2 3 3 5 5 6 6 6 7 4
5 7 9 8 9 10 9 8 10 11 11 9 7 6 5 6 7 6 5 5 7 7 7 8 9 9 9 8 6 5 4 2 1 1 4 7 5 4 5 5 4 5 5 6 7 7 6 6 4 6 7 7 8 12 12 11 10 10 10 9 8 6 4 4 3 3 2 2 1 1 2 4 5 2 2 4 3 3 4 5 6 6 6 8 12
3 3 5 5 6 8 7 5 6 6 4 4 5 7 7 7 7 8 8 8 8 7 7 8 9 7 6 5 5 6 4 0 1 3 5 7 7 5 4 5 5 5 6 6 7 6 7 6 4 4 5 6 6 6 7 9 10 10 10 9 8 7 8 5 4 3 3 3 2 4 2 4 3 3 2 3 5 4 3 3 3 4 7 7 5
0 1 2 3 4 4 4 5 5 4 4 4 5 5 7 7 7 6 8 6 4 5 6 5 6 6 5 6 6 4 2 1 5 7 9 8 7 5 4 4 4 5 5 5 6 6 4 4 3 2 2 7 7 6 6 5 5 7 7 7 7 7 5 5 4 2 5 3 3 3 4 2 1 1 1 3 2 3 4 5 3 3 4 6 6
1 0 0 0 1 2 2 3 4 4 4 4 4 6 6 8 7 5 3 2 4 6 6 7 7 7 8 6 4 1 1 4 8 9 5 1 1 2 2 3 3 3 4 4 4 4 4 6 6 4 3 3 4 5 4 4 4 4 3 2 2 5 7 6 4 5 3 1 2 2 0 1 1 1 2 0 1 3 4 5 4 6 6 7 6
2 1 0 0 0 1 3 3 4 4 4 4 4 5 6 5 4 4 5 6 6 7 8 7 6 5 4 3 4 4 4 4 5 2 3 4 4 2 1 1 2 2 1 2 3 3 4 5 4 5 4 4 3 4 5 5 4 3 3 3 4 4 4 3 2 2 1 2 2 1 1 2 2 3 3 2 2 3 3 5 5 6 7 6 5
3 1 2 2 3 3 4 4 4 5 4 5 6 6 5 6 6 4 4 4 3 4 3 4 7 6 5 7 6 4 1 1 3 5 7 8 8 4 3 3 3 3 3 3 2 2 3 4 5 4 4 3 3 6 5 5 4 4 4 4 4 4 4 3 5 5 4 4 3 3 2 2 3 3 3 3 3 3 3 3 3 3 5 6 7
2 1 1 0 1 3 5 5 5 5 5 6 5 6 5 4 4 3 6 4 4 2 2 1 2 5 5 4 5 3 1 1 1 5 8 10 7 5 4 5 4 5 5 5 4 4 2 3 4 5 4 3 1 7 8 8 4 4 4 3 3 4 3 1 3 5 5 5 4 3 3 4 5 6 7 7 3 2 0 3 5 3 5 7 6
3 1 1 2 2 3 3 6 6 5 5 6 5 5 4 2 2 2 5 5 4 3 3 5 3 2 2 1 1 4 3 1 1 3 7 7 7 6 5 6 5 4 5 5 5 5 6 8 5 5 5 3 5 8 8 7 5 5 4 4 2 2 1 0 1 1 3 1 3 1 3 4 4 4 5 5 6 2 0 4 4 3 5 4 7
4 4 2 2 3 4 1 2 2 6 5 6 6 5 5 4 3 3 5 5 4 3 3 6 5 4 3 2 4 3 2 4 4 1 6 7 6 5 6 6 5 3 5 4 4 5 5 7 9 7 6 6 9 9 9 8 6 4 4 4 2 1 1 1 3 3 4 4 3 3 3 4 4 4 5 8 8 6 2 4 3 4 6 6 6
3 4 4 1 1 1 2 2 1 2 4 5 4 3 2 4 4 5 4 5 6 5 4 5 6 4 3 4 4 3 3 2 1 3 5 6 7 5 5 6 5 4 3 5 5 4 4 5 6 10 10 10 9 9 8 7 6 4 3 3 2 1 0 1 0 0 1 2 3 3 4 4 5 4 4 4 5 4 5 4 4 5 6 6 6
4 5 2 1 2 2 3 4 4 3 2 2 2 1 1 1 3 5 5 5 6 5 5 5 6 4 3 3 3 3 2 2 1 3 5 6 7 7 4 5 5 5 4 3 4 5 5 4 4 5 8 8 7 7 6 6 6 4 3 3 1 2 4 1 0 2 1 1 2 3 4 4 4 4 4 4 5 5 5 5 5 5 6 6 7
3 3 4 4 2 2 3 3 3 4 3 3 2 0 0 3 4 4 5 6 5 5 4 4 6 5 3 3 3 3 2 3 3 4 6 7 6 7 6 3 3 6 6 4 5 5 4 3 3 3 6 6 6 6 7 7 7 4 4 5 6 5 0 0 0 1 1 1 2 3 4 4 5 5 5 5 6 6 5 6 6 6 6 6 7
5 3 3 2 3 4 4 4 3 3 3 3 4 2 1 3 3 5 6 5 5 5 4 4 5 4 4 3 3 2 2 2 4 4 6 9 10 10 9 5 6 4 7 5 4 4 2 2 1 3 5 6 6 6 5 5 5 3 3 2 2 2 1 0 0 0 2 3 3 5 4 5 6 6 6 6 6 6 6 6 7 7 7 7 7
3 4 5 5 3 4 4 4 3 3 4 4 4 5 4 4 4 5 5 6 6 5 3 3 4 4 4 3 2 2 2 3 4 6 6 10 10 11 11 10 9 6 6 6 5 4 3 2 2 3 4 5 6 6 5 4 2 3 2 3 1 0 0 1 2 2 2 3 4 5 6 5 5 6 6 6 6 6 7 6 7 7 7 7 7
5 4 5 6 6 6 7 6 6 4 4 4 4 4 3 5 6 4 6 6 6 6 5 5 5 4 3 3 3 2 2 3 3 4 8 9 11 11 12 12 10 11 8 4 4 3 4 5 6 6 6 7 7 6 6 6 6 5 5 5 3 2 3 3 3 3 5 4 5 5 5 6 6 7 7 7 6 6 6 6 5 6 6 7 7
5 5 4 4 6 5 7 7 7 7 5 6 7 7 8 6 6 7 6 7 6 6 6 4 4 5 5 4 3 2 2 2 3 3 3 7 7 11 13 13 12 12 9 7 8 9 9 9 9 9 8 7 5 4 4 3 4 6 6 5 4 3 3 3 3 3 5 5 5 6 6 6 6 6 6 6 6 7 6 7 6 6 6 7 8
6 5 4 3 4 5 6 6 6 5 5 7 6 5 5 6 6 6 6 6 6 6 7 7 6 6 6 7 7 7 4 2 2 3 3 6 6 6 8 8 9 9 7 5 6 6 8 7 7 7 7 8 7 5 5 4 4 5 4 3 3 3 2 2 2 3 4 5 5 6 6 7 6 5 6 6 7 7 6 7 7 7 6 6 7
7 6 7 5 3 3 5 8 8 6 3 3 5 5 6 7 8 8 8 8 7 6 6 6 7 7 7 6 5 4 3 4 5 6 5 5 5 5 5 5 5 6 7 5 6 5 5 5 7 5 5 6 6 6 6 5 4 5 6 5 5 3 2 3 3 2 4 5 6 5 5 5 6 6 6 6 7 7 6 6 6 7 6 7 7
7 7 7 5 6 4 3 3 5 5 5 3 3 1 2 3 4 4 2 4 8 9 8 7 7 7 7 8 8 6 4 6 7 5 6 8 9 7 6 6 5 6 7 9 6 5 5 7 6 6 6 5 6 5 5 6 5 4 4 5 4 4 4 3 5 6 6 5 6 6 7 6 7 6 7 7 7 7 6 6 6 7 7 6 9
6 7 6 6 6 5 4 4 2 2 3 6 6 4 5 6 1 2 3 1 3 3 8 7 8 8 6 4 5 9 10 8 7 9 7 7 8 9 9 8 8 8 8 8 7 7 6 6 5 5 5 5 5 5 5 4 5 5 4 4 4 4 4 4 5 5 5 5 6 6 7 7 7 7 7 8 8 7 7 8 8 7 8 8 9
6 7 6 5 6 5 5 4 3 3 3 3 5 6 5 6 9 8 2 1 5 7 6 4 8 9 10 7 3 6 8 10 11 10 11 11 12 12 11 10 12 12 10 9 7 5 5 6 4 4 3 4 4 3 2 2 2 2 3 4 5 4 4 4 5 5 5 6 6 6 6 7 7 7 8 8 9 8 8 7 7 7 8 8 9
7 7 7 6 6 5 4 4 2 3 3 3 2 4 6 6 5 9 11 8 7 7 9 9 10 10 11 12 9 4 9 13 14 13 13 13 13 12 11 11 10 9 8 11 7 5 5 6 4 3 3 5 1 1 1 1 2 2 3 3 5 3 4 5 5 4 5 6 7 7 7 7 8 8 8 8 8 9 8 8 7 7 8 8 9
7 7 6 6 6 5 5 5 4 5 5 6 4 3 5 6 7 4 8 11 13 11 7 8 11 11 12 12 13 13 12 13 15 14 14 14 13 11 11 11 10 10 9 7 7 5 4 4 6 3 3 3 1 0 1 2 2 3 3 3 5 5 5 5 4 5 5 6 7 7 8 8 8 8 8 8 8 9 8 8 8 8 8 9 9
8 7 6 6 6 6 6 5 5 5 6 7 7 7 6 6 7 6 6 5 8 11 13 10 9 10 9 11 12 14 16 16 15 15 15 14 14 11 10 7 8 7 8 7 6 6 4 5 3 3 2 1 0 1 2 2 2 2 3 4 5 5 6 6 5 6 6 7 7 7 8 8 8 9 9 9 8 9 9 9 8 8 8 8 9
8 9 12 9 6 7 6 5 5 5 5 6 7 6 6 5 7 9 10 9 7 6 3 5 6 6 7 9 13 16 16 15 15 15 14 14 13 12 11 8 7 5 6 5 5 6 5 4 3 2 2 1 1 1 1 3 2 4 4 5 5 5 5 6 6 6 7 7 8 8 9 9 9 9 9 9 8 8 8 9 8 8 9 9 9
9 8 8 10 9 7 6 5 5 6 6 7 7 8 8 7 7 6 5 7 8 8 4 4 4 6 9 10 14 14 14 14 14 13 12 13 13 10 6 5 6 5 5 3 5 4 5 4 4 2 1 0 1 1 1 3 4 4 5 5 6 6 7 7 8 8 8 8 9 10 10 9 9 9 8 8 9 9 9 9 9 8 9 9 8
9 9 9 8 8 8 8 6 6 7 6 6 5 5 5 6 6 6 6 7 7 6 8 7 7 7 7 4 7 11 12 13 12 11 10 10 9 5 5 6 6 6 5 4 4 4 3 2 2 1 0 0 1 1 3 4 4 4 5 5 5 7 7 7 8 8 8 8 9 9 10 9 9 9 8 9 9 8 8 8 9 9 9 10 10
10 10 9 8 6 7 7 7 7 8 7 6 5 6 6 7 7 7 8 8 9 9 8 6 7 10 10 6 4 5 8 10 12 10 8 8 6 5 5 6 6 6 5 4 4 4 3 2 1 1 0 0 2 3 3 3 4 4 5 6 6 7 11 10 10 9 8 8 9 9 9 9 8 8 8 8 9 9 9 9 8 9 9 9 8
10 13 14 13 11 9 8 7 7 7 6 6 6 7 7 7 6 6 7 8 8 7 8 8 8 8 8 7 7 6 8 6 6 6 5 5 5 5 6 6 5 5 4 4 3 3 3 2 1 1 0 1 2 2 2 4 4 5 5 6 7 7 8 7 8 8 8 8 8 8 8 8 8 8 8 8 9 9 9 9 9 8 8 8 8
9 8 11 15 10 10 8 8 7 7 7 8 7 6 6 7 9 9 8 9 8 8 8 9 8 8 8 8 8 7 7 7 6 6 6 6 6 5 6 6 5 6 5 4 3 3 3 2 1 0 0 1 1 3 3 3 5 5 5 5 6 7 8 8 8 8 8 8 8 9 9 9 9 8 8 8 8 8 9 9 9 8 8 8 9
8 8 8 11 11 9 7 7 7 8 7 7 7 6 5 7 7 7 8 9 9 9 8 8 8 7 7 8 10 9 8 7 6 6 6 7 6 6 5 5 5 4 4 4 3 2 2 1 1 0 1 1 2 2 3 4 5 5 5 6 6 7 7 8 7 7 8 8 9 9 9 9 9 9 9 9 9 9 8 8 8 8 8 8 8
7 6 7 7 9 8 7 6 6 8 8 8 8 8 8 7 7 7 8 8 10 9 8 7 7 6 6 9 8 7 6 5 5 5 5 5 5 5 5 3 3 5 5 5 4 2 1 1 1 1 1 2 2 3 4 5 5 5 5 6 7 7 7 7 7 7 8 8 9 9 9 9 10 9 10 9 8 8 8 8 7 8 7 7 7
4 6 7 7 7 7 7 7 7 7 7 7 7 6 7 9 8 8 10 5 5 9 9 9 7 6 5 6 7 7 5 5 5 6 5 5 5 4 5 4 3 3 2 2 2 2 1 0 1 1 1 2 1 3 4 4 4 5 5 6 7 7 8 8 7 7 7 8 9 10 11 10 9 8 8 8 8 8 8 8 8 7 7 7 7
9 8 8 7 7 7 7 7 6 6 6 7 7 7 7 6 8 7 6 9 7 7 7 7 7 7 6 4 5 5 5 5 5 5 5 5 5 5 3 3 3 2 1 2 1 1 0 1 2 2 1 2 3 4 4 3 4 4 5 6 6 7 7 7 7 8 8 8 9 9 9 9 9 9 9 9 8 8 8 8 8 7 7 7 7
9 9 9 9 8 8 7 7 8 8 9 8 7 7 8 8 5 8 8 8 7 6 6 6 6 7 6 4 4 5 6 6 6 5 5 5 5 4 3 4 3 3 3 3 2 1 1 0 1 2 4 4 5 5 5 5 3 3 4 5 5 7 7 8 8 8 9 8 8 9 8 8 9 9 8 8 8 8 8 8 7 8 8 7 7
9 9 9 9 9 9 8 8 8 8 9 9 9 8 7 7 7 7 8 7 7 7 5 5 5 6 5 5 5 6 6 5 5 5 6 5 5 3 3 3 2 1 2 1 1 0 0 1 1 2 3 4 5 5 5 4 4 4 3 3 5 6 7 7 7 8 8 8 9 9 10 9 9 8 10 9 8 8 8 8 7 7 7 7 7
10 9 9 9 9 8 8 8 7 8 8 8 8 7 7 7 7 7 7 7 6 6 5 5 5 5 5 5 6 5 5 6 6 5 5 5 4 4 3 2 2 2 2 1 0 1 1 1 1 2 2 3 3 4 4 5 4 5 4 4 4 6 6 7 8 7 7 8 8 8 9 8 9 8 9 9 8 8 8 7 7 8 7 6 6
8 8 8 8 8 8 8 8 8 8 8 7 7 7 7 7 7 6 6 6 6 6 6 5 6 5 6 5 5 5 5 6 5 5 5 4 4 3 2 2 2 2 1 2 2 2 3 2 3 3 3 3 4 4 5 5 5 5 5 5 5 7 11 11 8 7 6 7 7 8 8 8 8 8 8 9 8 8 8 7 7 7 6 6 6
8 8 8 8 8 8 7 7 7 7 7 8 8 8 7 7 6 6 6 6 6 6 6 6 6 6 6 6 6 6 6 6 6 5 4 4 3 2 2 2 2 2 2 3 3 4 3 3 3 3 3 3 4 5 5 5 6 6 7 6 9 16 17 16 10 8 9 7 6 7 7 7 8 8 9 8 8 8 7 7 7 7 6 6 6
8 8 8 8 8 8 8 8 7 7 7 7 8 7 7 7 7 7 7 7 7 7 6 6 6 6 6 6 6 6 6 6 5 5 4 3 2 1 1 2 3 2 3 4 4 4 3 3 3 4 4 4 5 5 5 5 6 7 6 8 14 16 16 18 16 14 10 7 7 6 6 7 7 7 7 7 8 9 8 8 7 6 6 6 6
8 9 9 8 8 7 8 8 8 7 7 7 7 7 7 7 7 6 7 7 7 6 6 6 6 6 6 6 6 6 6 5 5 4 3 2 1 1 2 2 3 3 4 5 4 3 4 4 5 5 4 5 5 5 5 6 6 7 11 14 14 16 17 16 12 14 16 10 6 5 6 7 7 8 8 7 7 8 9 9 8 7 6 6 6
Wind_Direction
174 161 165 219 213 185 190 184 187 196 219 206 196 182 174 181 189 190 149 185 165 180 204 223 231 216 181 171 161 166 166 173 176 158 157 160 168 163 162 160 154 165 154 162 153 150 146 149 175 169 143 97 86 63 58 62 79 73 72 85 74 48 81 105 63 302 303 285 303 345 336 359 8 13 10 4 1 359 13 17 12 16 15 9 5
145 154 193 212 233 289 270 218 188 177 199 219 223 195 173 177 187 158 185 191 171 186 194 200 213 231 202 196 188 179 179 177 182 170 164 166 175 170 170 170 163 166 163 171 180 183 156 157 185 196 176 127 115 85 101 76 76 71 52 77 66 48 23 72 42 25 324 318 358 339 4 4 9 11 11 360 357 359 12 9 15 21 15 5 5
173 187 186 161 140 133 104 299 288 185 198 208 227 262 263 202 169 175 191 187 185 187 190 188 192 203 225 227 215 202 195 189 181 182 171 170 172 199 196 179 169 166 174 183 184 168 158 175 199 191 167 128 103 118 111 95 97 97 92 87 90 70 44 69 69 17 353 322 340 1 11 352 16 358 1 356 349 355 12 13 5 11 16 8 2
143 140 118 109 97 80 105 162 201 190 184 189 185 182 152 141 241 205 180 169 182 182 158 175 180 191 213 229 224 214 205 192 189 195 187 180 181 193 202 218 209 189 182 184 181 173 184 182 215 190 175 157 143 102 97 109 108 112 105 102 107 108 95 78 80 100 60 357 329 21 357 359 344 354 356 355 1 3 12 351 2 21 13 9 1
123 122 119 117 122 120 134 143 158 176 178 175 146 96 78 59 45 51 94 105 108 122 128 124 174 212 226 221 220 218 210 195 193 205 208 208 202 194 196 202 210 216 209 192 185 183 184 191 199 175 169 172 169 135 144 118 128 118 121 132 122 127 92 87 89 84 70 22 323 315 355 341 331 336 4 360 353 3 7 9 360 4 1 1 352
119 123 125 113 98 91 67 49 77 100 95 79 91 102 106 110 106 80 42 53 64 57 57 38 35 310 273 268 278 276 253 220 202 193 189 187 194 201 214 224 228 219 232 232 200 191 188 201 192 175 173 176 192 174 155 143 144 131 131 141 133 117 108 100 100 84 83 74 346 340 349 0 351 12 7 1 351 349 354 0 3 11 4 355 358
112 109 112 118 116 115 117 117 116 104 94 89 91 100 108 113 112 107 108 90 75 76 79 79 55 18 348 342 315 282 270 254 231 205 202 194 191 193 193 206 238 252 246 247 247 213 205 199 190 183 186 191 178 175 167 156 146 147 144 140 135 111 102 101 89 76 74 47 9 52 325 315 10 343 353 0 333 19 357 347 349 4 12 2 341
111 114 122 126 131 133 128 124 115 118 122 119 108 97 83 87 102 110 91 87 108 109 111 115 129 135 320 330 309 296 289 277 251 233 219 207 194 205 194 200 224 242 244 238 243 243 224 211 198 194 193 193 183 178 164 162 148 138 164 133 136 103 99 94 66 70 58 51 34 327 333 311 335 280 294 343 7 32 43 10 337 336 342 348 331
129 129 126 129 137 128 112 89 70 65 63 90 120 121 123 117 102 102 133 148 162 136 82 99 210 245 228 231 240 243 264 273 271 253 248 249 230 224 220 219 220 229 237 235 226 225 234 228 215 204 203 196 191 176 177 159 148 148 185 145 124 110 109 85 103 84 66 52 353 332 345 348 338 352 353 12 15 329 322 3 317 318 321 329 329
132 133 134 138 138 132 135 139 142 145 146 156 167 146 143 144 154 174 176 169 154 132 139 149 170 238 232 233 235 231 243 253 268 279 282 283 270 258 251 238 232 235 240 246 244 236 234 228 224 214 205 196 187 178 166 166 164 158 166 161 137 120 116 114 107 113 91 19 306 328 345 329 323 337 325 296 299 312 336 346 337 320 325 317 290
148 152 153 161 153 149 153 158 153 157 166 172 165 143 137 138 142 156 154 158 157 165 178 188 203 210 217 227 237 243 246 236 69 197 235 241 236 241 240 241 229 229 229 229 235 234 236 234 236 223 210 192 180 172 167 165 157 154 159 163 158 140 131 126 163 158 157 208 208 186 247 282 295 271 282 293 327 341 329 333 323 336 353 351 330
162 178 167 155 153 156 160 161 149 149 163 167 171 152 148 153 169 176 175 175 183 173 186 200 209 217 224 234 243 249 258 131 225 228 227 228 219 225 232 238 241 235 233 230 233 230 228 220 211 196 189 180 158 157 154 156 154 154 156 157 159 153 150 151 155 165 187 198 241 243 209 256 266 320 309 2 332 337 332 333 327 338 329 327 299
41 157 198 166 155 171 173 159 153 155 183 172 163 157 151 165 183 190 195 186 153 172 205 208 221 222 223 230 240 241 239 303 300 265 248 245 243 228 238 240 244 247 242 239 235 231 217 190 169 155 158 149 144 149 151 151 137 135 142 149 160 161 157 131 96 134 169 160 197 245 208 215 285 284 16 344 333 333 334 341 331 306 284 288 288
85 56 356 359 154 166 150 138 154 169 173 173 166 158 159 181 193 204 199 170 183 198 195 200 205 205 207 211 208 171 205 242 243 240 242 282 325 211 246 266 258 257 248 235 231 221 188 169 162 166 143 147 149 151 155 145 132 115 125 118 86 52 53 55 44 49 67 156 171 220 289 135 298 257 292 234 7 323 323 306 303 306 297 281 284
70 105 177 259 209 134 134 134 151 151 148 147 138 152 172 179 193 203 196 197 196 198 195 199 206 205 199 171 151 181 215 251 255 226 120 114 105 88 46 44 49 42 51 150 152 145 153 163 167 153 144 149 147 167 156 146 132 122 108 86 63 63 61 46 59 115 118 115 127 176 225 224 220 238 247 224 216 237 241 258 279 279 283 292 281
50 57 139 212 178 158 138 130 129 130 129 130 129 141 152 163 166 169 135 127 131 140 134 144 154 154 162 159 155 162 203 208 174 147 117 106 98 79 73 65 60 45 32 33 52 90 131 144 143 130 133 135 155 158 139 129 129 125 113 89 81 83 72 46 82 100 117 134 151 165 192 211 230 244 261 262 258 257 278 305 313 288 309 318 310
336 76 339 321 234 177 153 147 147 150 148 129 133 139 137 143 147 135 91 96 98 107 180 125 136 136 140 143 133 147 165 32 194 152 124 113 92 91 87 77 60 59 42 33 30 33 45 108 111 116 101 90 117 145 142 131 114 116 115 110 115 112 101 46 103 109 123 135 149 157 238 255 266 268 269 270 262 261 190 360 310 308 336 313 304
357 32 245 242 209 243 213 157 155 158 147 148 151 155 141 142 157 177 122 125 107 145 142 95 75 81 110 116 112 152 185 324 300 171 131 126 121 118 111 98 83 75 61 36 30 31 22 49 87 95 98 92 99 105 116 110 107 118 116 110 79 49 4 359 94 69 60 87 134 238 250 258 270 288 286 304 315 317 94 307 276 337 298 281 293
347 15 3 281 231 182 220 319 195 161 164 174 161 158 168 153 139 104 109 105 103 87 82 85 64 46 54 81 60 53 43 20 21 43 120 123 113 113 113 106 101 81 88 65 41 45 37 39 61 79 85 91 87 88 90 93 103 109 120 107 95 42 297 23 38 15 5 10 354 0 322 326 333 333 323 322 316 314 274 250 274 275 280 283 284
283 328 318 339 140 159 174 168 239 247 192 177 176 152 128 125 118 102 76 93 101 85 90 92 85 52 42 58 63 71 84 36 31 82 120 117 121 119 120 118 125 119 102 108 86 49 57 64 66 87 92 90 90 90 93 107 117 123 103 100 116 65 212 90 63 86 332 351 312 322 303 303 314 314 312 313 313 305 296 282 265 252 260 274 274
224 256 244 282 101 149 182 177 174 200 225 176 139 100 90 80 107 108 106 88 88 82 88 100 95 78 61 65 79 68 110 109 49 84 103 104 112 113 103 120 132 123 116 93 102 110 90 82 78 90 96 97 100 102 102 88 86 98 92 113 138 114 113 75 7 67 340 304 301 302 296 304 302 300 295 300 293 293 289 280 266 247 247 263 273
275 264 207 191 152 177 161 174 173 167 164 121 122 85 101 117 116 109 116 114 105 99 98 100 102 95 75 61 70 69 68 100 102 70 85 87 82 100 103 104 129 125 97 91 88 84 104 106 94 79 85 91 84 75 71 71 66 80 81 83 89 97 123 155 196 238 242 265 277 293 298 298 301 303 303 297 290 286 279 275 272 263 245 233 244
270 229 213 214 180 174 191 166 155 131 136 146 125 151 104 100 108 123 118 107 110 113 113 112 105 97 74 52 56 71 66 69 90 97 92 93 89 84 94 99 84 93 115 116 113 111 79 65 69 75 60 56 59 67 67 60 54 47 47 48 93 152 157 159 195 342 338 322 317 306 304 307 310 304 297 290 278 273 271 267 268 266 265 258 247
295 255 241 223 176 179 188 195 179 172 160 161 154 149 137 126 124 127 126 127 124 121 136 129 119 122 118 98 81 61 42 60 64 93 98 95 90 92 92 93 96 95 98 113 114 114 101 72 47 58 38 28 35 41 45 57 47 19 10 353 331 154 95 40 17 7 328 323 327 320 310 298 294 292 284 277 277 273 273 270 267 263 261 263 261
321 320 278 252 215 193 190 192 198 186 191 165 169 160 154 152 137 158 134 136 141 150 174 168 158 152 134 131 144 106 51 49 58 80 95 94 94 94 94 94 94 95 91 98 108 114 107 77 59 47 36 36 40 43 41 31 20 11 3 3 29 51 33 22 6 4 348 326 305 295 289 283 278 278 281 282 283 286 282 277 270 269 269 267 265
312 307 289 278 278 241 224 232 236 224 188 191 186 183 172 168 157 159 144 145 151 143 146 131 105 99 93 74 42 1 5 57 80 85 88 94 90 92 94 93 90 89 95 93 88 73 65 60 59 55 54 56 60 56 52 35 41 48 49 48 42 39 33 23 3 357 321 304 300 294 286 285 285 280 282 287 288 283 284 288 295 292 291 291 293
291 286 283 275 257 272 257 234 228 233 191 194 202 181 160 141 142 147 157 149 141 140 146 148 136 129 132 145 159 170 169 191 152 125 116 106 106 105 98 94 97 92 84 82 78 81 78 79 82 85 91 80 79 81 66 41 39 24 26 28 35 28 30 28 339 305 298 293 284 278 277 277 280 294 295 296 294 289 280 285 286 283 285 282 283
268 269 279 279 268 220 240 250 226 202 182 169 187 179 186 161 158 160 169 169 155 164 156 161 166 163 172 162 132 119 166 193 189 161 157 134 123 112 107 107 105 116 107 102 98 93 94 87 72 52 52 44 36 31 26 32 41 21 11 9 4 353 332 297 282 269 266 263 271 277 284 291 299 296 297 296 291 289 284 279 279 286 284 290 284
258 263 260 257 266 264 230 228 258 230 161 104 64 117 189 215 196 196 228 172 169 165 178 187 187 183 157 154 152 167 179 209 215 189 171 161 148 138 128 122 116 97 123 126 105 76 68 59 52 46 41 48 36 32 20 19 10 12 11 357 343 329 327 343 326 308 299 303 304 307 303 302 299 297 294 291 287 289 284 281 275 278 282 269 273
263 263 258 253 255 256 257 261 219 202 206 159 140 86 55 88 113 184 236 242 162 161 163 178 188 163 152 165 163 165 192 199 173 165 155 137 124 118 119 119 116 118 110 102 98 85 76 82 64 70 55 55 48 36 21 17 12 357 344 329 325 318 312 305 297 295 302 308 306 306 302 300 296 297 295 291 290 284 282 281 284 280 280 277 276
253 251 260 264 260 253 254 245 225 174 183 197 164 141 118 41 41 43 66 110 157 136 141 119 145 162 153 148 114 110 129 134 139 136 132 124 117 113 113 116 118 122 125 98 53 87 97 86 69 60 64 72 61 44 28 22 348 324 315 309 296 297 298 302 298 306 310 307 304 297 295 295 296 295 293 292 292 290 287 279 275 273 268 270 271
250 245 244 248 252 254 245 249 198 167 173 176 229 169 147 120 49 30 35 54 83 129 143 139 148 150 144 135 124 67 120 131 135 136 131 124 118 115 111 111 116 114 113 105 94 83 95 102 84 68 75 71 55 48 30 335 312 313 307 318 308 293 302 308 306 309 304 309 310 308 303 301 297 295 292 290 289 287 286 285 278 275 272 268 267
259 263 253 245 246 247 248 232 207 187 185 180 200 204 168 157 135 92 32 45 59 63 83 129 143 146 144 145 146 147 149 146 141 134 129 124 118 110 105 103 113 119 93 74 110 109 98 98 102 100 94 100 154 203 306 322 314 306 302 303 313 315 312 303 310 309 301 299 302 300 301 299 297 294 291 288 288 286 286 282 280 275 272 273 272
238 244 249 247 243 246 238 223 201 201 193 189 189 186 194 167 151 139 106 79 51 43 46 59 98 119 119 128 128 131 137 140 137 133 129 126 122 115 103 91 80 77 106 126 109 120 112 103 99 107 120 152 167 15 344 329 316 313 318 318 309 307 306 305 311 307 306 307 306 300 300 297 295 294 290 287 282 280 280 278 278 278 276 271 274
232 231 233 235 237 238 234 218 205 203 196 189 180 183 188 193 163 155 159 157 138 121 105 53 50 83 119 122 132 135 136 135 134 134 132 132 128 124 111 95 92 72 62 78 104 115 116 118 120 133 143 88 334 4 322 315 334 343 333 317 309 300 302 314 315 316 314 312 307 304 300 296 292 287 284 285 286 284 281 281 278 274 274 274 272
235 229 225 223 224 226 220 211 203 195 197 201 194 184 173 167 171 163 131 121 127 126 96 72 75 68 96 123 133 133 132 131 132 132 137 137 141 125 98 108 106 112 108 102 109 119 121 139 134 144 155 26 344 332 315 359 335 318 306 304 310 319 325 325 321 317 313 309 303 298 296 292 288 284 283 280 279 279 279 278 278 276 271 271 271
229 230 228 221 215 212 209 203 196 202 203 196 177 159 164 156 143 134 130 131 125 121 123 126 104 80 66 76 113 121 123 123 123 124 132 143 138 110 126 137 137 129 121 129 130 136 124 152 151 153 190 22 298 325 3 339 315 312 309 315 322 327 323 317 312 310 308 305 299 295 292 289 288 287 287 287 284 281 279 278 278 275 273 272 273
222 221 221 213 210 206 203 199 198 196 198 180 173 168 159 157 153 145 139 138 139 136 138 142 139 138 139 141 152 132 122 110 100 88 91 97 96 106 117 127 131 134 149 162 161 145 143 168 184 163 227 242 16 7 340 316 313 312 317 328 328 318 315 312 308 303 299 295 294 293 292 291 290 292 291 286 286 287 285 283 282 281 278 273 269
221 214 209 200 198 199 200 192 185 176 174 166 164 161 161 150 140 137 136 136 137 138 141 141 142 141 142 144 136 149 126 120 123 132 121 111 108 120 125 124 129 140 153 160 161 142 149 169 209 218 231 357 4 312 301 308 311 318 327 330 321 314 312 308 305 302 301 297 297 296 295 294 295 295 292 290 288 287 286 285 281 278 278 281 275
216 209 205 197 195 195 189 185 176 171 165 160 166 160 155 156 154 149 143 139 142 146 147 146 146 147 149 148 148 155 142 143 144 145 136 132 132 133 131 137 146 154 158 158 159 160 156 209 214 208 293 323 286 303 308 309 321 325 325 318 311 310 307 304 300 303 303 303 300 299 299 299 300 298 294 289 287 289 290 289 288 283 281 277 278
223 210 189 188 186 182 175 166 168 168 164 163 162 160 153 144 138 138 140 144 145 145 147 145 143 144 152 160 164 160 147 152 148 145 147 146 147 143 148 150 149 151 154 154 164 164 186 200 242 244 268 266 280 309 322 337 339 334 321 314 310 304 303 301 300 302 303 303 301 302 303 304 304 303 301 298 296 294 290 289 287 286 282 278 276
210 195 167 166 173 161 158 155 158 154 156 152 149 148 148 147 138 137 141 153 148 142 134 128 127 130 140 150 157 145 128 127 128 125 123 135 143 147 151 161 160 149 154 163 165 166 189 258 268 249 273 313 326 338 353 356 343 324 320 318 315 311 308 306 307 306 306 305 304 303 305 305 302 301 297 297 298 296 295 292 291 289 287 284 280
108 127 126 138 137 139 137 141 138 138 140 144 144 138 140 141 143 146 139 140 137 132 135 131 126 122 129 139 133 125 113 124 122 128 132 135 133 135 149 164 152 148 168 164 150 138 137 174 269 261 281 301 326 11 8 334 324 320 318 316 313 310 307 307 310 310 310 307 305 305 305 304 303 303 302 302 299 300 296 299 299 295 291 288 288
71 75 87 94 94 96 99 108 109 109 112 112 114 116 118 122 133 123 117 124 137 129 123 128 134 133 132 127 114 108 114 116 120 127 129 124 123 124 126 113 110 108 93 69 60 105 117 264 278 290 285 319 2 19 5 335 316 313 315 313 311 308 306 307 309 311 311 307 303 300 304 306 306 306 306 305 306 305 305 305 305 305 303 302 299
71 79 86 88 87 92 90 96 104 108 109 107 104 104 115 108 105 121 126 122 105 100 113 127 131 128 126 126 120 117 120 118 121 120 119 123 118 118 119 101 98 105 88 64 59 82 121 252 288 350 356 346 7 6 350 325 318 309 306 308 303 305 304 305 305 306 304 297 296 300 301 305 307 309 307 308 306 306 305 309 311 312 315 313 313
67 74 80 86 89 93 95 96 100 106 110 109 112 108 104 105 116 115 110 109 113 121 123 120 115 118 125 124 117 114 120 117 114 111 111 106 109 112 105 111 109 93 85 80 38 94 169 65 360 1 360 353 356 348 337 323 325 327 319 303 294 287 291 298 302 303 300 297 298 301 305 306 309 309 310 310 309 307 305 308 310 312 309 310 308
59 66 69 78 81 86 85 89 88 93 97 99 104 105 105 99 95 89 90 102 110 111 110 115 114 114 111 114 120 120 121 117 119 112 111 110 108 111 102 103 98 75 43 14 15 63 46 19 341 2 3 1 360 346 333 332 332 331 327 317 302 304 307 310 306 297 294 295 297 296 303 307 310 313 312 312 311 312 312 311 316 317 317 315 315
65 67 68 73 79 84 87 89 92 90 87 87 86 85 87 87 88 91 98 102 101 103 101 94 93 97 100 97 98 104 104 103 100 100 98 96 95 91 91 91 80 62 36 24 14 25 34 1 348 355 8 18 15 355 344 337 339 334 328 326 320 320 317 316 307 305 300 303 296 297 301 306 310 312 315 315 316 317 316 319 320 322 322 323 324
53 55 60 59 62 61 67 71 74 78 86 89 87 84 85 90 92 95 94 92 92 91 95 99 96 94 93 97 99 98 97 99 99 96 94 95 92 84 86 81 73 54 52 28 10 22 11 359 351 357 19 34 30 2 349 346 341 337 332 326 326 328 328 329 325 315 316 309 303 304 306 309 314 317 318 318 320 319 316 316 320 323 322 327 328
54 54 59 58 61 61 63 66 68 73 74 81 86 88 85 88 87 88 90 89 88 85 84 85 90 92 102 103 104 103 104 105 106 107 103 97 91 92 75 67 63 56 47 29 19 7 359 3 4 13 22 36 18 5 355 350 343 332 327 326 327 331 332 331 328 330 335 323 312 303 308 311 315 315 319 322 324 324 326 328 327 328 330 336 338
56 59 59 58 60 60 63 67 66 67 70 75 78 83 82 79 79 78 81 83 86 84 83 82 86 84 83 87 94 101 100 101 100 104 107 114 115 71 57 47 31 22 25 31 21 14 17 21 20 19 20 20 11 1 359 348 338 334 328 325 328 335 336 335 331 327 328 333 317 313 317 321 322 323 325 327 330 330 331 328 330 335 337 336 334